Sedona, AZ

6:49 AM MST on October 21, 2019 (GMT -0700)
Sedona

Weather History for KSEZ - August, 2019

Change the Weather History Date:

Wednesday, August 14, 2019

  Actual Average Record
Temperature  
Mean Temperature 86 °F -  
Max Temperature 102 °F 92 °F 102 °F (2019)
Min Temperature 71 °F 62 °F 64 °F (2017)
Cooling Degree Days 22    
Growing Degree Days 36 (Base 50)    
Moisture  
Dew Point 33 °F    
Average Humidity 16    
Maximum Humidity 25    
Minimum Humidity 9    
Precipitation  
Precipitation 0.00 in - - ()
Sea Level Pressure  
Sea Level Pressure 30.19 in    
Wind  
Wind Speed 8 mph (SSE)    
Max Wind Speed 13 mph    
Max Gust Speed 18 mph    
Visibility 10 miles    
Events      
Averages and records for this station are not official NWS values.
T = Trace of Precipitation, MM = Missing Value Source: NWS Daily Summary

Daily Weather History Graph

Daily Weather History Graph

Search for Another Location

Airport or City:

Astronomy

Aug. 14, 2019 Rise Set
Actual Time 5:46 AM MST 7:16 PM MST
Civil Twilight 5:19 AM MST 7:43 PM MST
Nautical Twilight 4:47 AM MST 8:15 PM MST
Astronomical Twilight 4:13 AM MST 8:49 PM MST
Moon 7:10 PM MST (8/14) 4:51 AM MST (8/14)
Length of Visible Light 14h 23m
Length of Day
13h 29m
Full, 100% of the Moon is Illuminated
Aug 14
Full
Aug 15
Full
Aug 23
Last Quarter
Aug 30
New
Sep 5
First Quarter

Hourly Weather History & Observations

Time (MST) Temp. Dew Point Humidity Pressure Visibility Wind Dir Wind Speed Gust Speed Precip Events Conditions
12:15 AM 75.2 °F 35.6 °F 24% 30.21 in 10.0 mi NNE 11.5 mph - N/A   Clear
12:35 AM 75.2 °F 35.6 °F 24% 30.21 in 10.0 mi NNE 11.5 mph - N/A   Clear
12:55 AM 77.0 °F 35.6 °F 22% 30.20 in 10.0 mi NNE 11.5 mph - N/A   Clear
1:15 AM 75.2 °F 35.6 °F 24% 30.19 in 10.0 mi NNE 10.4 mph - N/A   Clear
1:35 AM 73.4 °F 35.6 °F 25% 30.19 in 10.0 mi NNE 8.1 mph - N/A   Clear
1:55 AM 73.4 °F 35.6 °F 25% 30.19 in 10.0 mi NNE 11.5 mph - N/A   Clear
2:15 AM 73.4 °F 35.6 °F 25% 30.19 in 10.0 mi NNE 9.2 mph - N/A   Clear
2:35 AM 73.4 °F 35.6 °F 25% 30.19 in 10.0 mi NNE 9.2 mph - N/A   Clear
2:55 AM 73.4 °F 33.8 °F 23% 30.19 in 10.0 mi NNE 10.4 mph - N/A   Clear
3:35 AM 73.4 °F 33.8 °F 23% 30.19 in 10.0 mi NNE 10.4 mph - N/A   Clear
3:55 AM 73.4 °F 32.0 °F 22% 30.19 in 10.0 mi NNE 9.2 mph - N/A   Clear
4:15 AM 73.4 °F 32.0 °F 22% 30.19 in 10.0 mi NNE 12.7 mph - N/A   Clear
4:35 AM 73.4 °F 32.0 °F 22% 30.19 in 10.0 mi NNE 11.5 mph - N/A   Clear
4:55 AM 73.4 °F 32.0 °F 22% 30.19 in 10.0 mi NE 12.7 mph - N/A   Clear
5:15 AM 71.6 °F 32.0 °F 23% 30.19 in 10.0 mi NNE 12.7 mph - N/A   Clear
5:35 AM 73.4 °F 32.0 °F 22% 30.19 in 10.0 mi NE 9.2 mph - N/A   Clear
5:55 AM 73.4 °F 32.0 °F 22% 30.19 in 10.0 mi NNE 8.1 mph - N/A   Clear
6:15 AM 73.4 °F 32.0 °F 22% 30.21 in 10.0 mi ENE 6.9 mph - N/A   Clear
6:35 AM 73.4 °F 32.0 °F 22% 30.21 in 10.0 mi NE 6.9 mph 16.1 mph N/A   Clear
6:50 AM 75.2 °F 33.8 °F 22% 30.22 in 10.0 mi East 4.6 mph - N/A   Clear
7:15 AM 75.2 °F 33.8 °F 22% 30.22 in 10.0 mi Calm Calm - N/A   Clear
7:35 AM 75.2 °F 33.8 °F 22% 30.22 in 10.0 mi Calm Calm - N/A   Clear
7:55 AM 78.8 °F 33.8 °F 20% 30.23 in 10.0 mi East 4.6 mph - N/A   Clear
8:15 AM 80.6 °F 33.8 °F 18% 30.24 in 10.0 mi East 3.5 mph - N/A   Clear
8:35 AM 82.4 °F 35.6 °F 19% 30.24 in 10.0 mi SSE 3.5 mph - N/A   Clear
8:55 AM 82.4 °F 33.8 °F 17% 30.24 in 10.0 mi Calm Calm - N/A   Clear
9:15 AM 86.0 °F 35.6 °F 17% 30.24 in 10.0 mi South 3.5 mph - N/A   Clear
9:35 AM 86.0 °F 33.8 °F 15% 30.24 in 10.0 mi Calm Calm - N/A   Clear
9:55 AM 89.6 °F 35.6 °F 15% 30.24 in 10.0 mi SSE 5.8 mph - N/A   Clear
10:15 AM 89.6 °F 35.6 °F 15% 30.24 in 10.0 mi South 3.5 mph - N/A   Clear
10:35 AM 89.6 °F 33.8 °F 14% 30.23 in 10.0 mi Calm Calm - N/A   Clear
10:55 AM 93.2 °F 33.8 °F 12% 30.23 in 10.0 mi SSE 5.8 mph - N/A   Clear
11:15 AM 95.0 °F 33.8 °F 12% 30.23 in 10.0 mi South 4.6 mph - N/A   Clear
11:35 AM 95.0 °F 33.8 °F 12% 30.22 in 10.0 mi South 8.1 mph - N/A   Clear
11:55 AM 93.2 °F 33.8 °F 12% 30.21 in 10.0 mi West 5.8 mph - N/A   Clear
12:15 PM 95.0 °F 33.8 °F 12% 30.21 in 10.0 mi South 5.8 mph - N/A   Clear
12:35 PM 96.8 °F 33.8 °F 11% 30.20 in 10.0 mi Calm Calm - N/A   Clear
12:55 PM 98.6 °F 33.8 °F 10% 30.19 in 10.0 mi WSW 3.5 mph - N/A   Clear
1:15 PM 98.6 °F 33.8 °F 10% 30.19 in 10.0 mi SSW 5.8 mph - N/A   Clear
1:35 PM 96.8 °F 33.8 °F 11% 30.18 in 10.0 mi South 5.8 mph - N/A   Clear
1:55 PM 96.8 °F 33.8 °F 11% 30.17 in 10.0 mi West 6.9 mph - N/A   Clear
2:15 PM 98.6 °F 33.8 °F 10% 30.17 in 10.0 mi WSW 6.9 mph - N/A   Clear
2:35 PM 100.4 °F 33.8 °F 10% 30.15 in 10.0 mi South 9.2 mph - N/A   Clear
2:55 PM 98.6 °F 33.8 °F 10% 30.15 in 10.0 mi WSW 6.9 mph - N/A   Clear
3:15 PM 102.2 °F 35.6 °F 10% 30.14 in 10.0 mi SE 11.5 mph - N/A   Clear
3:35 PM 100.4 °F 33.8 °F 10% 30.13 in 10.0 mi South 9.2 mph - N/A   Clear
3:55 PM 100.4 °F 32.0 °F 9% 30.13 in 10.0 mi SSE 8.1 mph - N/A   Clear
4:15 PM 98.6 °F 32.0 °F 10% 30.13 in 10.0 mi WSW 9.2 mph 17.3 mph N/A   Clear
4:35 PM 98.6 °F 32.0 °F 10% 30.12 in 10.0 mi SW 9.2 mph 18.4 mph N/A   Clear
4:55 PM 98.6 °F 32.0 °F 10% 30.11 in 10.0 mi South 4.6 mph - N/A   Clear
5:15 PM 96.8 °F 32.0 °F 10% 30.11 in 10.0 mi SSW 5.8 mph - N/A   Clear
5:35 PM 96.8 °F 32.0 °F 10% 30.11 in 10.0 mi West 5.8 mph - N/A   Clear
5:55 PM 96.8 °F 32.0 °F 10% 30.11 in 10.0 mi WSW 6.9 mph - N/A   Clear
6:15 PM 95.0 °F 33.8 °F 12% 30.11 in 10.0 mi South 10.4 mph - N/A   Clear
6:35 PM 95.0 °F 33.8 °F 12% 30.11 in 10.0 mi South 6.9 mph - N/A   Clear
8:15 PM 87.8 °F 32.0 °F 14% 30.15 in 10.0 mi South 5.8 mph - N/A   Clear
8:30 PM 87.8 °F 32.0 °F 14% 30.16 in 10.0 mi SW 4.6 mph - N/A   Clear
8:55 PM 86.0 °F 32.0 °F 14% 30.17 in 10.0 mi South 3.5 mph - N/A   Clear
9:15 PM 86.0 °F 32.0 °F 14% 30.18 in 10.0 mi Calm Calm - N/A   Clear
9:35 PM 86.0 °F 32.0 °F 14% 30.19 in 10.0 mi Calm Calm - N/A   Clear
9:55 PM 86.0 °F 32.0 °F 14% 30.19 in 10.0 mi Calm Calm - N/A   Clear
10:15 PM 86.0 °F 32.0 °F 14% 30.19 in 10.0 mi Calm Calm - N/A   Clear
10:35 PM 84.2 °F 32.0 °F 15% 30.19 in 10.0 mi Calm Calm - N/A   Clear
10:55 PM 82.4 °F 32.0 °F 16% 30.19 in 10.0 mi WNW 6.9 mph - N/A   Clear
11:15 PM 84.2 °F 32.0 °F 15% 30.19 in 10.0 mi West 6.9 mph - N/A   Clear
11:35 PM 82.4 °F 32.0 °F 16% 30.19 in 10.0 mi Calm Calm - N/A   Clear
11:55 PM 82.4 °F 32.0 °F 16% 30.19 in 10.0 mi Calm Calm - N/A   Clear